SL-16 DEB, 22367

Orbit data source: Space-Track

SL-16 DEB, 22367 is space debris in LEO originally from a launch on Fri, 25 Dec 1992 UTC launched from the Tyuratam Missile And Space Complex (TTMTR). Debris objects in space refer to the collection of defunct objects orbiting the Earth. Examples of debris include non-operational satellites, rocket bodies, and fragments generated from explosions, collisions, or faulty payload assembly.

Loading next visibility...
Identifier
22367, 1992-093BG
Orbit
LEO
Country
Flag of CISCIS
Related business
Manufacturer
Unknown
Mission
Spacecraft
Bus & Motor
Unknown
Mass
Unknown
Launch date (UTC)
1992-12-25 (33 years ago)
Launch vehicle
Unknown
Launch site
Tyuratam Missile And Space Complex (TTMTR)
Object type
Payload
Rocket body
Debris
Shape & HBR
Unknown shape, 0.3 m
Radar Cross Section
Medium (>0.1 m² and <1 m²)

Expand to show TLE details & history
Last TLE update: 20 hours ago

TLE from 20 hours ago
0 SL-16 DEB
1 22367U 92093BG  25348.93201649  .00000077  00000-0  97624-4 0  9995
2 22367  70.9019 268.8772 0189251 294.2503 147.3285 13.83378592662596
Epoch: 2025-12-14T22:22Z
TLE epoch observation values (Epoch: 2025-12-14T22:22:06.224Z)
Latitude
69.70496°
Longitude
-81.81996°
Altitude
1,080.97 km
Speed
7.259 km/s
True Right ascension
22h 30m 10s
True Declination
69° 35' 52"
Sunlit
Object was in daylight at epoch
Visualization orbit readout
Latitude
Unknown
Longitude
Unknown
Altitude
Unknown
Speed
Unknown
Apparent Right ascension
Unknown
Apparent Declination
Unknown
Sunlit
N/A
Visualization observer readout
Local Sidereal Time
17:25:43
Azimuth
Unknown
Elevation
Unknown
Doppler factor
Unknown
Orbital elements
Apogee altitude
1,088.576 km
Perigee altitude
811.208 km
Semi-major axis
7,328.029 km
Eccentricity
0.01893
Inclination
70.9019°
RAAN
268.8772°
Arg. of periapsis
294.2503°
True anomaly
148.47624°
Mean anomaly
147.3285°
Eccentric anomaly
147.90464°
Mean motion
3.45989 °/min
Orbital period
104.05 mins
BSTAR
0.000097624
Loading maneuver chart data...
Computing Atmospheric mass density...
Loading historical data...
Loading historical data...
Loading historical data...
Loading historical data...
Loading historical data...
Loading historical data...
Loading historical data...

Documentation

Showing up to 5 results
|